Showing default

HYPERVIEW-1G, 61772

Orbit data source: Space-Track

HYPERVIEW-1G, 61772 is a payload satellite owned by SNIU (CIS) in SSO that was launched on Mon, 04 Nov 2024 UTC via a SOYUZ-2-1B launch vehicle from the Vostochny Cosmodrome (VOSTO). Payload-class satellites include a variety of spacecraft equipped with specific instruments for various scientific and technological missions. These include communications satellites like Starlink; space stations such as the ISS; scientific satellites like the Hubble; Earth observation satellites from companies like Planet Labs, Umbra, and HawkEye 360; GPS; miniature CubeSats for education and research; and military/defense satellites.

Loading next visibility...
Identifier
61772, 2024-199AP
Orbit
SSO
Country
Flag of CISCIS
Related business
Manufacturer
Sputniks
Mission
Operational Amateur Imaging
Bus & Motor
CUBESAT 6U, Unknown motor
Mass
10 kg wet, 10 kg dry
Launch date (UTC)
2024-11-04 (2 years ago)
Launch vehicle
SOYUZ-2-1B
Launch site
Vostochny Cosmodrome (VOSTO)
Object type
Payload
Rocket body
Debris
Shape & HBR
Box, 0.1 m
Radar Cross Section
0.080 m², Medium (>0.1 m² and < 1m²)

Expand to show TLE details & history
Last TLE update: 7 hours ago

TLE from 7 hours ago
0 HYPERVIEW-1G
1 61772U 24199AP  26127.93329333  .00085976  00000-0  79562-3 0  9998
2 61772  97.2949   5.8982 0008221  76.9795 283.2383 15.67216378128357
Epoch: 2026-05-07T22:23Z
TLE epoch observation values (Epoch: 2026-05-07T22:23:56.543Z)
Latitude
-0.00007°
Longitude
164.14029°
Altitude
368.764 km
Speed
7.689 km/s
True Right ascension
00h 23m 35s
True Declination
0° 00' 00"
Sunlit
Object was in daylight at epoch
Visualization orbit readout
Latitude
Unknown
Longitude
Unknown
Altitude
Unknown
Speed
Unknown
Apparent Right ascension
Unknown
Apparent Declination
Unknown
Sunlit
N/A
Visualization observer readout
Local Sidereal Time
13:36:50
Azimuth
Unknown
Elevation
Unknown
Doppler factor
Unknown
Orbital elements
Apogee altitude
369.313 km
Perigee altitude
358.228 km
Semi-major axis
6,741.907 km
Eccentricity
0.00082
Inclination
97.2949°
RAAN
5.8982°
Arg. of periapsis
76.9795°
True anomaly
283.14658°
Mean anomaly
283.2383°
Eccentric anomaly
283.19244°
Mean motion
3.92075 °/min
Orbital period
91.82 mins
BSTAR
0.00079562
Loading maneuver chart data...
Computing Atmospheric mass density...
Loading historical data...
Loading historical data...
Loading historical data...
Loading historical data...
Loading historical data...
Loading historical data...
Loading historical data...

Documentation

Showing up to 5 results
|